Fullerton, CA

6:29 AM PST on February 27, 2017 (GMT -0800)
Fullerton Municipal

Weather History for KFUL - March, 2013

Change the Weather History Date:

Monday, March 18, 2013

  Actual Average Record
Temperature  
Mean Temperature 62 °F 60 °F  
Max Temperature 68 °F 70 °F 83 °F (2009)
Min Temperature 55 °F 50 °F 42 °F (2002)
Degree Days  
Heating Degree Days 3 5  
Month to date heating degree days 41 105  
Since 1 July heating degree days 712 1027  
Cooling Degree Days 0 0  
Month to date cooling degree days 20 8  
Year to date cooling degree days 32 17  
Growing Degree Days 12 (Base 50)    
Moisture  
Dew Point 49 °F    
Average Humidity 62    
Maximum Humidity 72    
Minimum Humidity 52    
Precipitation  
Precipitation 0.00 in 0.04 in 0.17 in (2005)
Month to date precipitation 0.63 1.72  
Year to date precipitation 2.03 8.00  
Since 1 July precipitation 5.34  
Snow  
Snow 0.00 in - - ()
Month to date snowfall 0.0  
Year to date snowfall 0.0  
Snow Depth 0.00 in    
Sea Level Pressure  
Sea Level Pressure 30.03 in    
Wind  
Wind Speed 2 mph (South)    
Max Wind Speed 10 mph    
Max Gust Speed 13 mph    
Visibility 9 miles    
Events      
T = Trace of Precipitation, MM = Missing Value Source: NWS Daily Summary

Daily Weather History Graph

Daily Weather History Graph

Search for Another Location

Airport or City:

Trip Planner

Search our weather history database for the weather conditions in past years. The results will help you decide how hot, cold, wet, or windy it might be!

Date:

Astronomy

Mar. 18, 2013 Rise Set
Actual Time 6:57 AM PDT 7:02 PM PDT
Civil Twilight 6:32 AM PDT 7:27 PM PDT
Nautical Twilight 6:03 AM PDT 7:56 PM PDT
Astronomical Twilight 5:34 AM PDT 8:25 PM PDT
Moon 11:16 AM PDT (3/18) 12:50 AM PDT (3/18)
Length of Visible Light 12h 54m
Length of Day
12h 04m
Waxing Crescent, 41% of the Moon is Illuminated
Mar 18
Waxing Crescent
Mar 19
First Quarter
Mar 27
Full
Apr 2
Last Quarter
Apr 10
New

Hourly Weather History & Observations

Time (PDT) Temp. Dew Point Humidity Pressure Visibility Wind Dir Wind Speed Gust Speed Precip Events Conditions
12:53 AM 60.1 °F 51.1 °F 72% 29.99 in 9.0 mi SSW 5.8 mph - N/A   Overcast
1:53 AM 59.0 °F 50.0 °F 72% 30.00 in 10.0 mi Calm Calm - N/A   Overcast
2:53 AM 59.0 °F 50.0 °F 72% 29.99 in 10.0 mi SSE 4.6 mph - N/A   Overcast
3:53 AM 59.0 °F 50.0 °F 72% 29.99 in 10.0 mi Calm Calm - N/A   Overcast
4:53 AM 59.0 °F 50.0 °F 72% 29.98 in 10.0 mi SSE 4.6 mph - N/A   Overcast
5:00 AM 59.0 °F 50.0 °F 72% 29.98 in 10.0 mi SSE 4.6 mph - N/A   Overcast
5:53 AM 59.0 °F 50.0 °F 72% 30.00 in 10.0 mi ESE 4.6 mph - N/A   Overcast
6:53 AM 59.0 °F 48.9 °F 69% 30.02 in 10.0 mi Calm Calm - N/A   Overcast
7:53 AM 59.0 °F 48.9 °F 69% 30.04 in 9.0 mi Calm Calm - N/A   Overcast
8:53 AM 60.1 °F 50.0 °F 69% 30.05 in 9.0 mi Calm Calm - N/A   Overcast
9:53 AM 60.1 °F 48.9 °F 67% 30.06 in 10.0 mi Calm Calm - N/A   Overcast
10:53 AM 61.0 °F 48.9 °F 64% 30.08 in 10.0 mi Calm Calm - N/A   Overcast
11:53 AM 62.1 °F 48.9 °F 62% 30.06 in 10.0 mi Calm Calm - N/A   Overcast
12:53 PM 63.0 °F 48.9 °F 60% 30.06 in 9.0 mi Calm Calm - N/A   Overcast
1:53 PM 64.9 °F 48.9 °F 56% 30.04 in 8.0 mi South 4.6 mph - N/A   Overcast
2:50 PM 66.2 °F 48.2 °F 52% 30.02 in 9.0 mi South 6.9 mph - N/A   Scattered Clouds
2:53 PM 66.9 °F 48.9 °F 52% 30.02 in 9.0 mi SE 4.6 mph - N/A   Partly Cloudy
3:53 PM 66.0 °F 48.9 °F 54% 30.00 in 10.0 mi South 5.8 mph - N/A   Clear
4:53 PM 66.0 °F 48.9 °F 54% 30.01 in 9.0 mi SW 4.6 mph - N/A   Clear
5:53 PM 64.0 °F 48.9 °F 58% 30.00 in 10.0 mi Variable 3.5 mph - N/A   Clear
6:53 PM 62.1 °F 48.9 °F 62% 30.01 in 10.0 mi SSW 4.6 mph - N/A   Clear
7:53 PM 62.1 °F 50.0 °F 65% 30.04 in 10.0 mi SW 6.9 mph - N/A   Clear
8:53 PM 60.1 °F 50.0 °F 69% 30.04 in 10.0 mi WNW 4.6 mph - N/A   Clear
9:53 PM 60.1 °F 50.0 °F 69% 30.07 in 8.0 mi WNW 3.5 mph - N/A   Clear
10:53 PM 57.9 °F 48.9 °F 72% 30.08 in 8.0 mi Calm Calm - N/A   Clear
11:53 PM 57.9 °F 48.9 °F 72% 30.06 in 8.0 mi Calm Calm - N/A   Clear